www.srh.weather.gov   
NOAA logo - Click to go to the NOAA homepage   NWS logo
Weather Roundup
Enter Your "City, ST" or zip code   
Current Version              Previous Version:    01  02  03  04  05  06  07  08  09  10  11  12  13  14  15  16  17  18  19  20  21  22  23  24  25  26  27  28  29  30  
   31  32  33  34  35  36  37  38  39  40  41  42  43  44  45  46  47  48  49  50  51  52  53  54  55  56  57  58  59  60  
[Printable]
695
NZUS99 KSGF 220959
HRRSGF

HOURLY WEATHER
NATIONAL WEATHER SERVICE SPRINGFIELD MO
400 AM CST MON DEC 22 2014

......SGF CWA......

CITY           SKY/WX    TMP DP  RH WIND       PRES   REMARKS
SPRINGFIELD    CLOUDY    43  36  76 SE14      29.67F
JOPLIN         CLOUDY    45  42  89 SE9       29.65F
WEST PLAINS    CLOUDY    42  35  76 SE10      29.75F
ROLLA          CLOUDY    42  33  70 SE8       29.73F
OSAGE BEACH    CLOUDY    43  34  70 SE9       29.71F

......SURROUNDING SGF CWA......

CITY           SKY/WX    TMP DP  RH WIND       PRES   REMARKS
CHANUTE        CLOUDY    44  43  96 SE9       29.63F
PARSONS        CLOUDY    45  43  93 SE7       29.63F
COFFEYVILLE    CLOUDY    46  43  89 SE8       29.63F
EMPORIA        CLOUDY    42  42 100 SE13      29.59F FOG
SILOAM SPRINGS CLOUDY    45  37  76 SE8       29.67F
HARRISON AR    CLOUDY    44  42  93 SE8       29.70F
NEAR YELLVILLE CLOUDY    45  36  70 E5        29.73S

......KANSAS AND MISSOURI......

CITY           SKY/WX    TMP DP  RH WIND       PRES   REMARKS
KANSAS CTY INT LGT RAIN  41  40  96 SE12      29.64F FOG
DOWNTOWN KC    LGT RAIN  43  39  86 SE8       29.65F FOG
COLUMBIA       LGT RAIN  40  36  86 E12       29.74F WCI  33
SEDALIA        CLOUDY    42  37  82 SE10      29.71F
ST JOSEPH      LGT RAIN  42  39  89 S10       29.65F FOG
ST LOUIS       CLOUDY    41  33  73 E10       29.84F
SPIRIT OF STL  CLOUDY    42  32  67 SE7       29.82F
KIRKSVILLE     CLOUDY    39  36  89 SE13      29.74F WCI  31
WICHITA        DRIZZLE   45  43  93 S9        29.57F FOG
TOPEKA         CLOUDY    45  42  89 SE10      29.62F
OLATHE         CLOUDY    41  41 100 SE10      29.64F FOG

......TENNESSEE......

CITY           SKY/WX    TMP DP  RH WIND       PRES   REMARKS
MEMPHIS        DRZL/FOG  48  46  93 S8        29.86F VSB 1
NASHVILLE      CLOUDY    47  44  90 SE9       29.96F

......ARKANSAS.......

CITY           SKY/WX    TMP DP  RH WIND       PRES   REMARKS
FAYETTEVILLE   CLOUDY    45  42  89 SE8       29.67F
FT SMITH       CLOUDY    46  43  89 NE6       29.68F
LITTLE ROCK    CLOUDY    47  42  83 SE9       29.79F

......OKLAHOMA.......

CITY           SKY/WX    TMP DP  RH WIND       PRES   REMARKS
TULSA          DRIZZLE   46  45  96 SE12      29.62F FOG
PONCA CITY     CLOUDY    47  45  93 SE10      29.57F FOG
MCALESTER      CLOUDY    50  46  86 S9        29.63F
OKLAHOMA CITY  CLOUDY    49  45  86 S7        29.54F

......IOWA............

CITY           SKY/WX    TMP DP  RH WIND       PRES   REMARKS
DES MOINES     CLOUDY    41  38  89 S14       29.69F
QUAD CITIES    CLOUDY    36  31  82 S15       29.84F WCI  27

......ILLINOIS........

CITY           SKY/WX    TMP DP  RH WIND       PRES   REMARKS
QUINCY         CLOUDY    40  32  73 SE12      29.80F WCI  33
CHICAGO        CLOUDY    29  25  85 SE8       29.96F WCI  21




National Weather Service
Disclaimer
Last Modified: August 31, 2005
Privacy Policy